Tracking 19831 objects as of 23-Aug-2019
HD Live streaming from Space Station
objects crossing your sky now

FENGYUN 1C DEB

Track FENGYUN 1C DEB now!
10-day predictions


NORAD ID: 30826
Int'l Code: 1999-025AVL
Perigee: 555.0 km
Apogee: 830.1 km
Inclination: 98.9 °
Period: 98.5 minutes
Semi major axis: 7063 km
RCS: 0.0008 m2 (small)
Launch date: May 10, 1999
Source: People's Republic of China (PRC)
Launch site: Taiyaun Space Center, China (TSC)

Note: This is SATELLITE DEBRIS
aabbcc
Your satellite tracking list
Your tracking list is empty




NASA's NSSDC Master Catalog

Two Line Element Set (TLE):
1 30826U 99025AVL 19235.43583431  .00000148  00000-0  33255-4 0  9990
2 30826  98.8709 212.4825 0194764 299.2564 215.3964 14.62410443665044
Source of the keplerian elements: AFSPC